Tracking 25703 objects as of 2-Jul-2022
HD Live streaming from Space Station
objects crossing your sky now

GEOTAIL

Track GEOTAIL now!
GEOTAIL is classified as:


NORAD ID: 22049
Int'l Code: 1992-044A
Perigee: 58,568.7 km
Apogee: 182,286.1 km
Inclination: 45.7 °
Period: 7,489.1 minutes
Semi major axis: 126798 km
RCS: 3.5 m2 (large)
Launch date: July 24, 1992
Source: Japan (JPN)
Launch site: AIR FORCE EASTERN TEST RANGE (AFETR)

Study the dynamics of the Earth's magnetotail over a wide range of distance
aabbcc
Your satellite tracking list
Your tracking list is empty




NASA's NSSDC Master Catalog

Two Line Element Set (TLE):
1 22049U 92044A   22186.53267597 -.00000927  00000-0  00000-0 0  9998
2 22049  45.6901  36.9626 4878508 200.3458   2.3919  0.19227923 12998
Source of the keplerian elements: AFSPC